sat.trackr.live / text

‹ back to catalog

STARLINK-36127

NORAD 66935 · 2025-286L

PAYLOAD ACTIVE UNKNOWN

§ Identity

Operator
Country
US
Launch date
2025-12-07
Launch site
AFWTR
Launch vehicle
Mass (kg)
RCS (m²)

Purposes: comms

External: N2YO · Heavens-Above · Gunter

§ Orbital elements

Epoch: 2026-05-24T21:45:41.362272Z

Period
93.85 min
Inclination
53.1594°
Eccentricity
0.0001069
Mean motion
15.34403372 rev/d
Perigee alt
462.0 km
Apogee alt
463.4 km
Semi-major
6,840.8 km
B*
7.7137e-4
RAAN
3.8841°
Arg perigee
65.2146°
Mean anomaly
294.8967°
Rev number
2,709

§ Raw data

STARLINK-361271 66935U 25286L   26144.90672873  .00025778  00000+0  77137-3 0  99972 66935  53.1594   3.8841 0001069  65.2146 294.8967 15.34403372 27097

JSON: /api/v1/satellites/66935 · /tle

For live sub-satellite position, see the globe view (requires WebGL).

§ Visibility from observer

Set your observer location to see the next 7 days of passes ≥ 10°. The values pass through the URL so the page stays shareable.

No JS? Fill the form by hand. The geolocation button needs JavaScript.